TimeCST,TemperatureF,Dew PointF,Humidity,Sea Level PressureIn,VisibilityMPH,Wind Direction,Wind SpeedMPH,Gust SpeedMPH,PrecipitationIn,Events,Conditions,WindDirDegrees,DateUTC
12:15 AM,22.1,18.9,87,29.94,10.0,SW,8.1,-,N/A,,Clear,220,2013-01-07 06:15:00
12:35 AM,23.2,20.3,89,29.92,10.0,South,13.8,-,N/A,,Clear,190,2013-01-07 06:35:00
12:55 AM,26.6,21.6,81,29.91,10.0,SSW,12.7,-,N/A,,Clear,210,2013-01-07 06:55:00
1:15 AM,24.1,19.4,82,29.92,10.0,SW,4.6,-,N/A,,Clear,220,2013-01-07 07:15:00
1:35 AM,24.3,20.3,85,29.91,10.0,SSW,4.6,-,N/A,,Clear,210,2013-01-07 07:35:00
1:55 AM,25.5,21.0,83,29.92,10.0,SW,9.2,-,N/A,,Clear,230,2013-01-07 07:55:00
2:15 AM,24.4,20.1,84,29.91,10.0,WSW,6.9,-,N/A,,Clear,240,2013-01-07 08:15:00
2:35 AM,24.6,20.1,83,29.91,10.0,SW,10.4,-,N/A,,Clear,230,2013-01-07 08:35:00
2:55 AM,24.3,19.4,82,29.91,10.0,WSW,8.1,-,N/A,,Clear,240,2013-01-07 08:55:00
3:15 AM,23.9,19.4,83,29.92,10.0,SW,9.2,-,N/A,,Clear,220,2013-01-07 09:15:00
3:35 AM,25.7,20.1,79,29.91,10.0,SW,6.9,-,N/A,,Clear,220,2013-01-07 09:35:00
3:55 AM,26.8,19.8,75,29.92,10.0,SW,10.4,-,N/A,,Clear,230,2013-01-07 09:55:00
4:15 AM,27.5,19.9,73,29.92,10.0,WSW,9.2,-,N/A,,Clear,240,2013-01-07 10:15:00
4:35 AM,27.9,19.6,71,29.92,10.0,WSW,10.4,-,N/A,,Clear,250,2013-01-07 10:35:00
4:55 AM,26.8,19.4,74,29.92,10.0,WSW,9.2,-,N/A,,Clear,240,2013-01-07 10:55:00
5:15 AM,27.0,19.9,75,29.93,10.0,WSW,5.8,-,N/A,,Clear,250,2013-01-07 11:15:00
5:55 AM,28.2,20.8,74,29.93,10.0,Calm,Calm,-,N/A,,Clear,0,2013-01-07 11:55:00
6:15 AM,28.6,21.4,74,29.94,10.0,Calm,Calm,-,N/A,,Clear,0,2013-01-07 12:15:00
6:35 AM,29.3,21.4,72,29.94,10.0,Calm,Calm,-,N/A,,Scattered Clouds,0,2013-01-07 12:35:00
6:55 AM,29.1,21.4,73,29.95,10.0,Calm,Calm,-,N/A,,Scattered Clouds,0,2013-01-07 12:55:00
7:15 AM,29.1,21.2,72,29.96,10.0,Calm,Calm,-,N/A,,Clear,0,2013-01-07 13:15:00
7:35 AM,29.5,20.5,69,29.97,10.0,SSW,8.1,-,N/A,,Clear,200,2013-01-07 13:35:00
8:15 AM,26.6,20.3,77,29.97,10.0,West,6.9,-,N/A,,Clear,270,2013-01-07 14:15:00
8:55 AM,27.5,20.3,74,29.97,10.0,NW,5.8,-,N/A,,Clear,320,2013-01-07 14:55:00
9:15 AM,25.7,18.7,75,29.97,10.0,Calm,Calm,-,N/A,,Clear,0,2013-01-07 15:15:00
9:35 AM,29.7,19.4,66,29.98,10.0,NW,4.6,-,N/A,,Clear,310,2013-01-07 15:35:00
9:55 AM,33.3,19.8,58,29.98,10.0,WNW,3.5,-,N/A,,Clear,300,2013-01-07 15:55:00
10:15 AM,37.6,19.9,49,29.98,10.0,NW,4.6,-,N/A,,Clear,320,2013-01-07 16:15:00
10:35 AM,40.6,20.5,45,29.99,10.0,NNW,5.8,-,N/A,,Clear,330,2013-01-07 16:35:00
10:55 AM,44.6,19.6,37,29.99,10.0,North,4.6,-,N/A,,Clear,350,2013-01-07 16:55:00
11:15 AM,47.3,18.1,31,29.98,10.0,North,4.6,-,N/A,,Clear,350,2013-01-07 17:15:00
11:35 AM,48.0,17.2,29,29.98,10.0,NNW,4.6,-,N/A,,Clear,340,2013-01-07 17:35:00
11:55 AM,48.6,17.8,29,29.98,10.0,North,5.8,-,N/A,,Clear,350,2013-01-07 17:55:00
12:15 PM,48.4,14.5,26,29.98,10.0,North,10.4,-,N/A,,Clear,360,2013-01-07 18:15:00
12:35 PM,46.4,16.0,30,29.96,10.0,North,11.5,-,N/A,,Clear,350,2013-01-07 18:35:00
12:55 PM,44.2,19.8,38,29.96,10.0,NNW,10.4,-,N/A,,Clear,340,2013-01-07 18:55:00
1:15 PM,43.9,19.9,38,29.96,10.0,North,11.5,-,N/A,,Clear,360,2013-01-07 19:15:00
1:35 PM,43.0,21.2,42,29.95,10.0,North,9.2,-,N/A,,Clear,10,2013-01-07 19:35:00
1:55 PM,43.0,21.0,42,29.95,10.0,North,8.1,-,N/A,,Clear,360,2013-01-07 19:55:00
2:15 PM,42.8,22.1,44,29.95,10.0,North,8.1,-,N/A,,Clear,360,2013-01-07 20:15:00
2:35 PM,42.4,21.0,43,29.95,10.0,North,6.9,-,N/A,,Clear,10,2013-01-07 20:35:00
2:55 PM,42.8,22.3,44,29.94,10.0,NNE,4.6,-,N/A,,Clear,30,2013-01-07 20:55:00
3:15 PM,43.0,22.6,45,29.94,10.0,North,4.6,-,N/A,,Clear,10,2013-01-07 21:15:00
4:15 PM,41.9,24.1,49,29.93,10.0,Calm,Calm,-,N/A,,Clear,0,2013-01-07 22:15:00
4:35 PM,41.9,23.9,49,29.93,10.0,Calm,Calm,-,N/A,,Clear,0,2013-01-07 22:35:00
5:15 PM,39.6,23.9,54,29.92,10.0,NNE,4.6,-,N/A,,Clear,30,2013-01-07 23:15:00
5:55 PM,35.4,24.4,64,29.91,10.0,Calm,Calm,-,N/A,,Clear,0,2013-01-07 23:55:00
6:15 PM,34.7,23.7,64,29.92,10.0,NNE,3.5,-,N/A,,Clear,20,2013-01-08 00:15:00
6:35 PM,32.0,23.4,70,29.92,10.0,NNE,3.5,-,N/A,,Clear,30,2013-01-08 00:35:00
6:55 PM,31.8,23.5,71,29.92,10.0,Calm,Calm,-,N/A,,Clear,0,2013-01-08 00:55:00
7:15 PM,31.8,23.4,71,29.93,10.0,Calm,Calm,-,N/A,,Clear,0,2013-01-08 01:15:00
7:35 PM,29.1,22.8,77,29.92,10.0,SSE,3.5,-,N/A,,Clear,160,2013-01-08 01:35:00
7:55 PM,28.4,22.1,77,29.92,10.0,South,5.8,-,N/A,,Clear,180,2013-01-08 01:55:00
8:15 PM,27.9,22.3,80,29.92,10.0,South,4.6,-,N/A,,Clear,180,2013-01-08 02:15:00
8:35 PM,25.7,21.0,82,29.92,10.0,Calm,Calm,-,N/A,,Clear,0,2013-01-08 02:35:00
8:55 PM,25.5,21.6,85,29.91,10.0,Calm,Calm,-,N/A,,Clear,0,2013-01-08 02:55:00
9:15 PM,24.6,20.7,85,29.90,10.0,Calm,Calm,-,N/A,,Clear,0,2013-01-08 03:15:00
9:35 PM,27.1,21.9,81,29.89,10.0,Calm,Calm,-,N/A,,Clear,0,2013-01-08 03:35:00
9:55 PM,25.2,20.8,84,29.89,10.0,WSW,5.8,-,N/A,,Clear,240,2013-01-08 03:55:00
10:15 PM,22.5,19.4,88,29.88,10.0,SW,5.8,-,N/A,,Clear,220,2013-01-08 04:15:00
10:35 PM,22.8,19.9,89,29.87,10.0,SW,6.9,-,N/A,,Clear,230,2013-01-08 04:35:00
10:55 PM,21.6,18.5,88,29.86,10.0,SW,6.9,-,N/A,,Clear,220,2013-01-08 04:55:00
11:15 PM,21.4,18.0,87,29.86,10.0,SW,10.4,-,N/A,,Clear,230,2013-01-08 05:15:00
11:35 PM,20.3,17.2,88,29.86,10.0,SW,6.9,-,N/A,,Clear,230,2013-01-08 05:35:00
11:55 PM,20.1,17.6,90,29.84,10.0,SW,8.1,-,N/A,,Clear,230,2013-01-08 05:55:00